{"data":{"norad_id":59735,"epoch":"2026-05-24T22:38:52.408032Z","epoch_age_seconds":73198,"freshness":"FRESH","line1":"1 59735U 24090F   26144.94366213  .00002224  00000+0  90288-4 0  9995","line2":"2 59735  43.0032 105.8093 0001526 276.1083  83.9594 15.27589262115181","mean_motion":15.27589262,"eccentricity":0.0001526,"inclination_deg":43.0032,"raan_deg":105.8093,"arg_perigee_deg":276.1083,"mean_anomaly_deg":83.9594,"bstar":9.0288e-5,"rev_number":11518,"period_min":94.266177160389,"perigee_km":481.97434965369,"apogee_km":484.0683751859,"semimajor_km":6861.1583624198,"source":"CELESTRAK","updated_at":"2026-05-25T13:38:19.051253Z"}}